Weather History for LGBL - April, 2014

Change the Weather History Date:

Wednesday, April 30, 2014

  Actual Average Record
Temperature  
Mean Temperature 62 °F -  
Max Temperature 73 °F - - ()
Min Temperature 51 °F - - ()
Degree Days  
Heating Degree Days 3    
Growing Degree Days 12 (Base 50)    
Moisture  
Dew Point 44 °F    
Average Humidity 52    
Maximum Humidity 72    
Minimum Humidity 33    
Precipitation  
Precipitation 0.00 in - - ()
Sea Level Pressure  
Sea Level Pressure 29.70 in    
Wind  
Wind Speed 8 mph ()    
Max Wind Speed 13 mph    
Max Gust Speed -    
Visibility 6.2 miles    
Events      
T = Trace of Precipitation, MM = Missing Value Source: Averaged Metar Reports

Daily Weather History Graph

Daily Weather History Graph

Search for Another Location

Airport or City:

Trip Planner

Search our weather history database for the weather conditions in past years. The results will help you decide how hot, cold, wet, or windy it might be!

Date:

Astronomy

Apr. 30, 2014 Rise Set
Actual Time 6:31 AM EEST 8:20 PM EEST
Civil Twilight 6:03 AM EEST 8:49 PM EEST
Nautical Twilight 5:28 AM EEST 9:24 PM EEST
Astronomical Twilight 4:50 AM EEST 10:02 PM EEST
Moon 7:19 AM EEST (4/30) 9:41 PM EEST (4/30)
Length of Visible Light 14h 46m
Length of Day
13h 48m
New Moon, 1% of the Moon is Illuminated
Apr 30
New Moon
May 7
First Quarter
May 14
Full
May 21
Last Quarter
May 28
New

Hourly Weather History & Observations

Time (EEST) Temp. Dew Point Humidity Pressure Visibility Wind Dir Wind Speed Gust Speed Precip Events Conditions
12:50 AM 53.6 °F 41.0 °F 62% 29.74 in 6.2 mi West 9.2 mph - N/A   Scattered Clouds
1:50 AM 51.8 °F 41.0 °F 67% 29.74 in 6.2 mi West 5.8 mph - N/A   Scattered Clouds
2:50 AM 53.6 °F 41.0 °F 62% 29.71 in 6.2 mi West 5.8 mph - N/A   Scattered Clouds
3:50 AM 53.6 °F 39.2 °F 58% 29.71 in 6.2 mi West 11.5 mph - N/A   Scattered Clouds
4:50 AM 53.6 °F 41.0 °F 62% 29.68 in 6.2 mi West 10.4 mph - N/A   Scattered Clouds
5:50 AM 53.6 °F 41.0 °F 62% 29.68 in 6.2 mi WNW 9.2 mph - N/A   Scattered Clouds
6:20 AM 51.8 °F 41.0 °F 67% 29.68 in 6.2 mi West 8.1 mph - N/A   Scattered Clouds
6:50 AM 53.6 °F 41.0 °F 62% 29.68 in 6.2 mi West 8.1 mph - N/A   Mostly Cloudy
7:20 AM 53.6 °F 41.0 °F 62% 29.71 in 6.2 mi West 6.9 mph - N/A   Mostly Cloudy
7:50 AM 55.4 °F 42.8 °F 63% 29.71 in 6.2 mi West 6.9 mph - N/A   Mostly Cloudy
8:20 AM 57.2 °F 42.8 °F 59% 29.71 in 6.2 mi West 10.4 mph - N/A   Mostly Cloudy
8:50 AM 59.0 °F 44.6 °F 59% 29.71 in 6.2 mi West 10.4 mph - N/A   Mostly Cloudy
9:20 AM 59.0 °F 44.6 °F 59% 29.71 in 6.2 mi West 9.2 mph - N/A   Mostly Cloudy
9:50 AM 62.6 °F 44.6 °F 52% 29.71 in 6.2 mi West 9.2 mph - N/A   Mostly Cloudy
10:20 AM 62.6 °F 44.6 °F 52% 29.71 in 6.2 mi WNW 8.1 mph - N/A   Mostly Cloudy
10:50 AM 62.6 °F 44.6 °F 52% 29.71 in 6.2 mi NW 6.9 mph - N/A   Mostly Cloudy
11:20 AM 68.0 °F 44.6 °F 43% 29.71 in 6.2 mi NW 5.8 mph - N/A   Scattered Clouds
11:50 AM 68.0 °F 42.8 °F 40% 29.71 in 6.2 mi West 11.5 mph - N/A   Scattered Clouds
12:20 PM 68.0 °F 41.0 °F 37% 29.71 in 6.2 mi WNW 12.7 mph - N/A   Scattered Clouds
1:20 PM 69.8 °F 41.0 °F 35% 29.71 in 6.2 mi WNW 11.5 mph - N/A   Scattered Clouds
1:50 PM 68.0 °F 41.0 °F 37% 29.71 in 6.2 mi West 12.7 mph - N/A   Scattered Clouds
2:20 PM 71.6 °F 41.0 °F 33% 29.71 in 6.2 mi WNW 12.7 mph - N/A   Scattered Clouds
2:50 PM 71.6 °F 41.0 °F 33% 29.68 in 6.2 mi WNW 11.5 mph - N/A   Scattered Clouds
3:20 PM 69.8 °F 42.8 °F 38% 29.71 in 6.2 mi West 11.5 mph - N/A   Mostly Cloudy
3:50 PM 71.6 °F 42.8 °F 35% 29.68 in 6.2 mi West 8.1 mph - N/A   Mostly Cloudy
4:20 PM 71.6 °F 41.0 °F 33% 29.68 in 6.2 mi WNW 10.4 mph - N/A   Mostly Cloudy
4:50 PM 73.4 °F 42.8 °F 33% 29.68 in 6.2 mi WNW 11.5 mph - N/A   Mostly Cloudy
5:20 PM 71.6 °F 44.6 °F 38% 29.68 in 6.2 mi WNW 8.1 mph - N/A   Scattered Clouds
5:50 PM 71.6 °F 44.6 °F 38% 29.68 in 6.2 mi NW 6.9 mph - N/A   Scattered Clouds
6:20 PM 73.4 °F 42.8 °F 33% 29.68 in 6.2 mi WNW 5.8 mph - N/A   Partly Cloudy
6:50 PM 71.6 °F 44.6 °F 38% 29.68 in 6.2 mi WNW 8.1 mph - N/A   Scattered Clouds
7:20 PM 69.8 °F 48.2 °F 46% 29.68 in 6.2 mi NW 6.9 mph - N/A   Scattered Clouds
7:50 PM 64.4 °F 53.6 °F 68% 29.71 in 6.2 mi NE 5.8 mph - N/A   Scattered Clouds
8:20 PM 62.6 °F 53.6 °F 72% 29.71 in 6.2 mi NE 5.8 mph - N/A   Scattered Clouds
8:50 PM 62.6 °F 51.8 °F 68% 29.71 in 6.2 mi NE 6.9 mph - N/A   Scattered Clouds
9:50 PM 60.8 °F 51.8 °F 72% 29.74 in 6.2 mi NW 4.6 mph - N/A   Scattered Clouds
10:50 PM 60.8 °F 50.0 °F 68% 29.74 in 6.2 mi Variable 3.5 mph - N/A   Scattered Clouds
11:50 PM 59.0 °F 48.2 °F 67% 29.77 in 6.2 mi West 4.6 mph - N/A   Scattered Clouds